星链-31248 (STARLINK-31248 )

导读

STARLINK-31248是美国SpaceX星链星座的卫星,于2024年1月24日发射入轨,属于星链低轨互联网星座的扩容卫星。星链星座旨在为全球提供覆盖广泛的低延迟宽带互联网服务,该卫星延续星链标准设计,依托近地轨道部署,助力完善全球网络覆盖布局,提升星链系统服务容量与覆盖稳定性。

Basic Information
目录编号:
58840
目录名称:
STARLINK-31248
国际标识:
2024-017Q
轨道中心:
EARTH
卫星名称:
星链-31248
卫星全名:
星链-31248 (STARLINK-31248 )
卫星状态:
在轨 (已飞行961 天)
发射日期:
2024-01-24 UTC
国别 :
美国 (US)
星等 :
--
This satellite is enrolled in the Space Conjunction Data Service (SCDS) and the current flight risk assessment level is: High Risk
Orbit Information
数据来源 国际轨道数据
星历时间: 2026-09-11T19:44:28+0800
8小时前
查看轨道信息
半长轴: 6840.885km
偏心率: 0.0001315
轨道倾角: 53.160°
近地点辐角 84.196°
升交点赤经 69.760°
平近点角 275.919°
近地点: 461.848km
远地点: 463.648km
周期: 93.849分钟
每日圈数: 15.343851
Detailed Information
固有亮度:
5
最大亮度:
0.3
卫星平台:
Starlink v2.0 mini
覆盖范围:
全球
运营商:
太空探索技术公司
运营商所在国:
美国
制造商(研发单位):
太空探索技术公司
制造商所在国:
美国
使用方式:
暂无
Satellite Introduction
星链(Starlink)计划是由太空探索技术公司(SpaceX)提出的一个巨型低轨卫星互联网星座项目,计划在2019年至2024年间在太空搭建由约1.2万颗卫星组成的“星链”网络,其中1584颗将部署在地球上空550千米处的近地轨道,并从2020年开始工作。该卫星仍在工作。
2D Orbit Map
3D Orbit Map
Orbit Altitude Analysis Chart
Orbit Inclination Analysis Chart
Orbit Comprehensive Analysis Chart
View Comprehensive Chart
Conjunction Data List
Event ID Objects TCA Miss Dist (km) Collision Risk Probability Collision Risk Index (CRI) Action
CDM_260912-170905-884006-586521
2026-09-12T
17:09:50+0000
0.563 km
远距离
1.02382E-4 高风险 0.75
CDM_260913-031905-884006-586521
2026-09-13T
03:19:29+0000
0.631 km
远距离
7.499644E-5 中风险 0.73
CDM_260912-153505-884006-824921
2026-09-12T
15:35:38+0000
0.874 km
远距离
2.621125E-5 中风险 0.63
CDM_260913-135005-884006-951021
2026-09-13T
13:50:38+0000
1.006 km
极远距离
2.290458E-5 中风险 0.62
CDM_260913-151405-884006-589521
2026-09-13T
15:14:17+0000
1.123 km
极远距离
1.555108E-5 中风险 0.59
CDM_260913-134005-884006-589521
2026-09-13T
13:40:30+0000
2.263 km
极远距离
1.872727E-6 低风险 0.4
CDM_260913-001105-884006-824921
2026-09-13T
00:11:29+0000
2.002 km
极远距离
1.842696E-6 低风险 0.4
CDM_260912-223705-884006-824921
2026-09-12T
22:37:41+0000
2.027 km
极远距离
1.789589E-6 低风险 0.4
CDM_260913-152405-884006-951021
2026-09-13T
15:24:26+0000
2.450 km
极远距离
1.6084E-6 低风险 0.39
CDM_260913-045305-884006-586521
2026-09-13T
04:53:16+0000
2.612 km
极远距离
1.112392E-6 低风险 0.36
Miss Distance Evolution Trend with All Objects
Collision Probability Evolution Trend with All Objects